BEESAT 9 (44412 NORAD) Tracking and Keplerian Element Data

This shows tracking and keplerian element data for the satellite.

Feedback or suggestion? Click here.




ElementValue
Catalog44412
NameBEESAT 9
Epoch Orbit18642
Epoch Day324.86787994
Epoch Year2022
RAAN295.7372
Inclination97.6546
Eccentricity0.0017449
Argument of Perigee319.8424
Mean Anonmoly40.152
Mean Motion15.19879598
Decay Rate0.00010292
L11 44412U 19038AC 22324.86787994 .00010292 00000+0 48066-3 0 9997
L22 44412 97.6546 295.7372 0017449 319.8424 40.1520 15.19879598186420



Live tracking and technical data element details for BEESAT 9 (NORAD 44412). BEESAT 9 can be tracked NOW for your location showing map with azimuth and elevation plus other details from your city location.







IsCatalogInMostPopularTable: catalog: 44412, numindb: 227
Update: records affected: 1



GetName: 44412 BEESAT 9

Hit Count: updated at: Fri, 02 Dec 2022 13:37:08 GMT